Home   Weather   Jersey City   Past weeks

Flag for USA Past Weather in Jersey City, New Jersey, USA — Yesterday and Last 2 Weeks

Now
58 °F

Light rain. Fog.


Feels Like: 54 °F
Forecast: 61 / 65 °F
Wind: 17 mph from Northeast

Location: Newark International Airport

Current Time: Sep 28, 2016 at 11:28:55 PM

Latest Report: Sep 28, 2016 at 10:51 PM


Visibility: 4 mi

Pressure: 30.24 "Hg

Humidity: 90%

Dew Point: 55 °F

Location of Jersey CityLocation

Past Weather in Jersey City — Graph

°F

Jersey City Temperature Yesterday

Maximum temperature yesterday: 75 °F (at 2:51 PM)
Minimum temperature yesterday: 63 °F (at 11:51 PM)
Average temperature yesterday: 69 °F

High & Low Weather Summary for the Past Weeks

 TemperatureHumidityPressure
High93 °F (Sep 14, 3:51 PM)97% (Sep 27, 4:51 AM)30.33 "Hg (Sep 27, 4:51 AM)
Low51 °F (Sep 26, 5:51 AM)19% (Sep 21, 2:51 PM)29.87 "Hg (Sep 27, 4:51 PM)
Average70 °F64%30.10 "Hg
* Reported Sep 13 9:51 PM — Sep 28 9:51 PM, Jersey City, Weather by CustomWeather, © 2016

Note: Actual official high and low records may vary slightly from our data, if they occured in-between our weather recording intervals... More about our weather records

Advertising

Jersey City Weather History for the Previous 24 Hours

Scroll right to see more
 ConditionsComfort  
Time TempWeatherWind HumidityBarometerVisibility
9:51 PM
Wed, Sep 28
59 °FLight rain. Fog.17 mph90%30.24 "Hg6 mi
8:51 PM60 °FDrizzle. Mostly cloudy.16 mph90%30.21 "Hg7 mi
7:51 PM61 °FLight rain. Overcast.15 mph83%30.19 "Hg8 mi
6:51 PM64 °FOvercast.12 mph70%30.17 "Hg10 mi
5:51 PM66 °FOvercast.17 mph68%30.14 "Hg10 mi
4:51 PM67 °FMostly cloudy.14 mph68%30.13 "Hg10 mi
3:51 PM68 °FBroken clouds.17 mph68%30.11 "Hg10 mi
2:51 PM71 °FBroken clouds.16 mph63%30.11 "Hg10 mi
1:51 PM70 °FCloudy.12 mph66%30.11 "Hg10 mi
12:51 PM70 °FCloudy.10 mph68%30.11 "Hg10 mi
11:51 AM70 °FMostly cloudy.12 mph66%30.10 "Hg10 mi
10:51 AM69 °FPartly sunny.14 mph73%30.09 "Hg10 mi
9:51 AM67 °FPartly sunny.12 mph81%30.09 "Hg10 mi
8:51 AM64 °FScattered clouds.10 mph81%30.07 "Hg10 mi
7:51 AM60 °FScattered clouds.7 mph86%30.06 "Hg10 mi
6:51 AM57 °FScattered clouds.9 mph87%30.04 "Hg10 mi
5:51 AM58 °FPassing clouds.8 mph84%30.02 "Hg10 mi
4:51 AM58 °FPassing clouds.6 mph84%30.01 "Hg10 mi
3:51 AM57 °FPassing clouds.8 mph87%30.01 "Hg10 mi
2:51 AM59 °FPassing clouds.6 mph84%30.01 "Hg10 mi
1:51 AM59 °FPassing clouds.7 mph84%29.99 "Hg10 mi
12:51 AM63 °FClear.No wind75%29.98 "Hg10 mi
11:51 PM
Tue, Sep 27
63 °FPassing clouds.3 mph75%29.97 "Hg10 mi
Weather by CustomWeather, © 2016

See weather overviewHow to use our weather pages